Starlink 35915

operational
NORAD ID: 66521 Int'l Des: 2025-265 Owner: SPXS Country: US Constellation: starlink
LEOCIRCULAR

About Starlink 35915

Description loading...

Live Position

Loading 3D Globe...

Upcoming Passes

Altitude History

Altitude vs Time

uPlot chart will show altitude changes over time

Two-Line Element Set

1 66521U 25265F 26061.11062494 .00039442 00000-0 14336-2 0 9993
2 66521 43.0067 320.7988 0002912 247.8863 112.1680 15.27613378 15953
Epoch: Mar 2, 2026 • Age: 29 hours

Current Status

Altitude 494.1 km
Velocity 7.62 km/s
Sub-Earth Point -42.85°S, 2.39°W
Launch Date Nov 19, 2025
Age 0.2 years
Type internet

Technical Details

Classification Payload
Mass 575.00 kg
Dry Mass 530.00 kg
Total Mass 575.00 kg
Length 0.30 m
Diameter 4.10 m
Span 29.00 m
Shape Box + pan
Manufacturer SPXS
Bus Type Starlink V2MO
Phase Status In Orbit
Owner/State SPXS/US

Large Constellations

Loading constellations...